| time (UTC) | temp F | wind direction | speed knots | gust knots | rain 1hr in | rain 24hr in | rain mn in | humidity % | barometer mb |
| 20260502163050 | 62 | 347 | 0.0 | 0.0 | 0.00 | 0.00 | 0.00 | 32 | 1017.2 |
| 20260502161554 | 62 | 15 | 0.9 | 0.0 | 0.00 | 0.00 | 0.00 | 31 | 1017.1 |
| 20260502151528 | 58 | 144 | 0.0 | 0.0 | 0.00 | 0.00 | 0.00 | 35 | 1017.3 |
| 20260502123117 | 41 | 27 | 0.0 | 0.0 | 0.00 | 0.00 | 0.00 | 56 | 1016.9 |
| 20260502121600 | 42 | 27 | 0.0 | 0.0 | 0.00 | 0.00 | 0.00 | 55 | 1016.7 |
| 20260502120116 | 42 | 27 | 0.0 | 0.0 | 0.00 | 0.00 | 0.00 | 58 | 1016.7 |
| 20260502114604 | 42 | 27 | 0.0 | 0.0 | 0.00 | 0.00 | 0.00 | 58 | 1016.6 |
| 20260502113111 | 42 | 27 | 0.0 | 0.0 | 0.00 | 0.00 | 0.00 | 58 | 1016.7 |
| 20260502111556 | 41 | 27 | 0.0 | 0.0 | 0.00 | 0.00 | 0.00 | 65 | 1016.8 |
| 20260502110054 | 40 | 27 | 0.0 | 0.0 | 0.00 | 0.00 | 0.00 | 68 | 1016.9 |
| 20260502104553 | 40 | 27 | 0.0 | 0.0 | 0.00 | 0.00 | 0.00 | 68 | 1016.7 |
| 20260502103050 | 41 | 27 | 0.0 | 0.0 | 0.00 | 0.00 | 0.00 | 67 | 1016.7 |
| 20260502101548 | 42 | 27 | 0.0 | 0.0 | 0.00 | 0.00 | 0.00 | 66 | 1016.7 |
| 20260502071524 | 46 | 255 | 0.0 | 0.0 | 0.00 | 0.00 | 0.00 | 58 | 1016.1 |
| 20260502070025 | 46 | 255 | 0.0 | 0.0 | 0.00 | 0.00 | 0.00 | 60 | 1016.2 |
| 20260502064524 | 47 | 255 | 0.0 | 0.0 | 0.00 | 0.00 | 0.00 | 60 | 1016.2 |
| 20260502063020 | 47 | 255 | 0.0 | 0.0 | 0.00 | 0.00 | 0.00 | 59 | 1016.1 |
| 20260502061519 | 48 | 255 | 0.0 | 0.0 | 0.00 | 0.00 | 0.00 | 57 | 1016.1 |
| 20260502060014 | 49 | 255 | 0.0 | 0.0 | 0.00 | 0.00 | 0.00 | 55 | 1016.0 |
| 20260502054513 | 49 | 255 | 0.0 | 0.0 | 0.00 | 0.00 | 0.00 | 57 | 1015.7 |
| 20260502053012 | 50 | 255 | 0.0 | 0.0 | 0.00 | 0.00 | 0.00 | 57 | 1015.7 |
| 20260502051516 | 51 | 255 | 0.0 | 0.0 | 0.00 | 0.00 | 0.00 | 57 | 1015.6 |
| 20260502050011 | 51 | 255 | 0.0 | 0.0 | 0.00 | 0.00 | 0.00 | 58 | 1015.6 |
| 20260502044511 | 50 | 255 | 0.0 | 0.0 | 0.00 | 0.00 | 0.00 | 60 | 1015.6 |
| 20260502043011 | 50 | 255 | 0.0 | 0.0 | 0.00 | 0.00 | 0.00 | 59 | 1015.4 |
| 20260502041510 | 51 | 255 | 0.0 | 0.0 | 0.00 | 0.00 | 0.00 | 57 | 1015.2 |
| 20260502040010 | 52 | 255 | 0.0 | 0.0 | 0.00 | 0.00 | 0.00 | 55 | 1015.1 |
| 20260502034509 | 53 | 255 | 0.0 | 0.0 | 0.00 | 0.00 | 0.00 | 54 | 1015.0 |
| 20260502033009 | 54 | 255 | 0.0 | 0.0 | 0.00 | 0.00 | 0.00 | 52 | 1014.8 |
| 20260502031508 | 55 | 255 | 0.0 | 0.0 | 0.00 | 0.00 | 0.00 | 49 | 1014.6 |
| 20260502030008 | 56 | 255 | 0.0 | 0.0 | 0.00 | 0.00 | 0.00 | 47 | 1014.4 |
| 20260502024507 | 58 | 255 | 0.0 | 0.0 | 0.00 | 0.00 | 0.00 | 45 | 1014.3 |
| 20260502023010 | 59 | 255 | 0.0 | 0.0 | 0.00 | 0.00 | 0.00 | 44 | 1014.2 |
| 20260502021506 | 61 | 255 | 0.0 | 0.0 | 0.00 | 0.00 | 0.00 | 42 | 1014.2 |
| 20260502020006 | 62 | 259 | 0.0 | 0.0 | 0.00 | 0.00 | 0.00 | 38 | 1014.0 |
| 20260502014508 | 63 | 250 | 0.0 | 0.0 | 0.00 | 0.00 | 0.00 | 36 | 1014.0 |
| 20260502013009 | 64 | 297 | 0.0 | 0.0 | 0.00 | 0.00 | 0.00 | 26 | 1013.9 |
| 20260502011504 | 64 | 331 | 0.0 | 0.0 | 0.00 | 0.00 | 0.00 | 26 | 1013.9 |
| 20260502010008 | 64 | 310 | 0.9 | 0.0 | 0.00 | 0.00 | 0.00 | 28 | 1014.0 |
| 20260502004506 | 65 | 321 | 0.0 | 0.0 | 0.00 | 0.00 | 0.00 | 27 | 1014.0 |
| 20260502003002 | 66 | 294 | 0.9 | 0.0 | 0.00 | 0.00 | 0.00 | 25 | 1014.0 |
| 20260502001604 | 66 | 296 | 0.0 | 0.0 | 0.00 | 0.00 | 0.00 | 26 | 1014.1 |
| 20260502000112 | 66 | 290 | 0.9 | 0.0 | 0.00 | 0.00 | 0.00 | 25 | 1014.1 |
| 20260501234602 | 67 | 281 | 0.0 | 0.0 | 0.00 | 0.00 | 0.00 | 26 | 1014.1 |
| 20260501233100 | 66 | 288 | 0.9 | 0.0 | 0.00 | 0.00 | 0.00 | 27 | 1014.2 |
| 20260501231557 | 66 | 294 | 1.7 | 0.0 | 0.00 | 0.00 | 0.00 | 27 | 1014.4 |
| 20260501230101 | 66 | 296 | 0.9 | 0.0 | 0.00 | 0.00 | 0.00 | 28 | 1014.6 |
| 20260501224552 | 65 | 295 | 0.9 | 0.0 | 0.00 | 0.00 | 0.00 | 28 | 1014.5 |
| 20260501223050 | 65 | 307 | 0.9 | 0.0 | 0.00 | 0.00 | 0.00 | 29 | 1014.9 |
| 20260501221555 | 66 | 339 | 1.7 | 0.0 | 0.00 | 0.00 | 0.00 | 27 | 1015.1 |
| 20260501220048 | 65 | 30 | 1.7 | 0.0 | 0.00 | 0.00 | 0.00 | 28 | 1015.3 |
| 20260501214552 | 65 | 268 | 0.9 | 0.0 | 0.00 | 0.00 | 0.00 | 29 | 1015.4 |
| 20260501213050 | 65 | 5 | 0.9 | 0.0 | 0.00 | 0.00 | 0.00 | 28 | 1015.6 |
| 20260501211546 | 65 | 279 | 0.9 | 0.0 | 0.00 | 0.00 | 0.00 | 30 | 1015.7 |
| 20260501210045 | 65 | 355 | 0.9 | 0.0 | 0.00 | 0.00 | 0.00 | 26 | 1015.9 |
| 20260501204543 | 64 | 348 | 2.6 | 0.0 | 0.00 | 0.00 | 0.00 | 29 | 1015.9 |
| 20260501203051 | 64 | 360 | 0.9 | 0.0 | 0.00 | 0.00 | 0.00 | 29 | 1015.9 |
| 20260501201547 | 64 | 343 | 1.7 | 0.0 | 0.00 | 0.00 | 0.00 | 29 | 1015.9 |
| 20260501200042 | 64 | 296 | 0.9 | 0.0 | 0.00 | 0.00 | 0.00 | 28 | 1016.0 |
| 20260501194541 | 64 | 74 | 1.7 | 0.0 | 0.00 | 0.00 | 0.00 | 22 | 1016.1 |
| 20260501193041 | 63 | 17 | 3.5 | 0.0 | 0.00 | 0.00 | 0.00 | 22 | 1016.3 |
| 20260501191550 | 63 | 29 | 0.9 | 0.0 | 0.00 | 0.00 | 0.00 | 26 | 1016.4 |
| 20260501190044 | 62 | 9 | 3.5 | 0.0 | 0.00 | 0.00 | 0.00 | 22 | 1016.6 |
| 20260501184532 | 62 | 355 | 3.5 | 0.0 | 0.00 | 0.00 | 0.00 | 23 | 1016.8 |
| 20260501183031 | 61 | 31 | 2.6 | 0.0 | 0.00 | 0.00 | 0.00 | 21 | 1016.9 |
| 20260501181531 | 61 | 38 | 5.2 | 0.0 | 0.00 | 0.00 | 0.00 | 24 | 1016.9 |